Wind_Speed
99 102 101 104 105 109 112 111 112 111 109 109 106 112 114 111 113 113 113 112 110 110 106 98 94 96 99
104 108 106 104 109 112 115 116 117 116 115 113 114 112 114 114 112 112 111 110 109 110 109 107 108 105 99
111 104 112 111 113 112 112 114 112 114 110 107 104 99 96 96 100 104 107 109 109 106 103 99 92 92 98
105 108 111 115 119 118 119 119 122 120 116 116 119 116 119 116 106 100 100 101 102 101 99 99 97 99 100
109 104 103 106 107 114 117 120 126 130 127 128 128 126 123 120 120 119 118 119 116 120 118 115 109 99 94
109 114 113 115 115 115 115 119 119 118 120 122 122 123 126 129 130 129 125 127 127 124 117 112 113 113 109
118 117 118 118 116 116 121 122 124 124 124 126 127 128 127 130 130 133 137 134 133 132 133 134 132 126 121
121 123 123 125 122 122 123 123 122 124 127 128 129 129 130 132 133 135 135 136 138 137 135 134 132 133 132
130 130 132 133 132 131 133 134 134 133 132 129 133 135 135 136 138 138 139 139 139 138 140 139 139 139 136
139 138 140 140 141 142 144 141 141 140 140 141 137 136 138 139 139 139 139 140 141 141 141 142 142 142 142
143 145 146 146 146 147 146 145 147 146 145 142 141 144 144 142 144 143 143 144 145 145 145 144 142 143 145
151 150 151 153 153 153 152 149 150 153 149 148 147 146 146 146 148 148 147 148 147 146 147 147 148 147 149
159 159 155 157 160 160 158 158 154 154 155 155 154 152 154 155 153 155 157 156 156 155 156 154 154 155 155
161 164 165 163 163 164 165 162 162 161 162 159 160 158 158 158 156 157 158 158 160 161 161 160 158 159 159
162 167 167 168 167 166 168 169 165 163 165 165 166 164 166 166 164 164 163 163 163 164 166 165 167 168 169
157 160 163 165 165 168 168 168 168 172 167 166 172 169 167 169 170 169 170 171 173 172 173 172 170 171 169
152 152 152 152 153 155 155 158 164 162 166 168 174 171 175 174 169 175 179 180 180 181 182 182 181 177 176
Wind_Direction
230 231 234 236 239 241 243 247 247 252 254 257 257 256 258 263 263 266 269 269 272 272 275 276 276 276 279
227 228 234 237 238 242 245 248 249 251 253 256 258 259 261 263 264 264 265 268 267 268 270 273 272 273 275
231 232 234 235 236 237 238 241 243 247 250 248 249 253 255 256 257 258 260 262 265 268 269 270 270 272 273
247 243 241 238 238 241 241 243 244 244 246 247 250 252 253 255 257 256 256 260 263 265 266 269 270 272 277
250 251 251 248 246 248 248 249 250 248 249 250 252 252 253 256 255 259 261 262 264 267 270 271 273 277 276
246 249 250 251 251 252 255 257 255 255 256 257 258 258 258 260 258 260 263 264 264 266 271 270 272 274 274
247 248 250 251 253 254 254 257 258 261 263 263 262 263 262 261 261 262 262 266 266 267 268 270 272 274 275
246 246 248 250 251 252 254 253 254 257 261 263 265 266 267 268 268 267 266 267 268 268 270 272 273 273 274
244 248 249 251 250 250 251 254 255 256 256 257 261 263 265 267 268 269 269 269 270 269 270 271 272 273 273
243 244 247 249 251 251 252 254 254 256 258 259 259 258 260 262 265 265 267 268 270 271 272 272 274 275 275
243 246 247 247 248 250 251 252 253 254 255 256 257 258 260 261 262 262 263 266 268 269 272 273 274 275 277
243 245 246 247 248 250 250 251 252 253 254 255 256 256 257 259 261 262 263 265 267 269 270 272 273 275 276
245 246 246 248 247 248 250 251 253 253 254 255 255 256 257 256 258 260 261 263 265 266 267 269 271 273 274
247 246 247 248 249 249 250 251 252 252 254 253 253 255 256 257 259 260 261 262 264 264 266 268 269 270 272
247 248 248 248 249 249 251 251 251 253 253 255 255 254 255 256 258 259 260 262 264 265 266 268 269 270 272
248 248 248 250 251 252 252 253 254 252 253 256 256 256 257 257 257 258 260 261 262 263 265 266 268 268 270
249 249 251 252 253 254 254 255 255 256 257 257 257 259 259 258 260 260 261 261 262 263 264 266 267 268 270
Height
10599 10601 10607 10613 10614 10618 10619 10622 10625 10628 10632 10631 10633 10636 10639 10639 10638 10639 10638 10638 10641 10641 10644 10645 10647 10648 10649
10575 10580 10584 10589 10592 10594 10596 10599 10602 10604 10609 10610 10612 10617 10618 10619 10619 10620 10619 10618 10619 10620 10622 10630 10628 10630 10630
10552 10558 10562 10568 10571 10571 10572 10573 10577 10581 10587 10590 10589 10593 10595 10593 10595 10597 10597 10596 10598 10597 10599 10602 10605 10607 10608
10530 10537 10541 10546 10549 10549 10551 10550 10554 10558 10564 10567 10566 10572 10575 10574 10574 10575 10576 10575 10575 10575 10581 10583 10584 10585 10585
10505 10511 10515 10520 10524 10524 10524 10525 10529 10534 10540 10542 10544 10548 10548 10547 10554 10553 10553 10555 10555 10555 10557 10559 10562 10561 10562
10479 10484 10489 10492 10495 10498 10496 10495 10502 10506 10506 10512 10513 10515 10518 10519 10523 10523 10527 10528 10530 10531 10534 10537 10536 10538 10538
10448 10454 10458 10462 10468 10470 10470 10471 10470 10473 10474 10478 10483 10485 10488 10489 10493 10496 10497 10497 10499 10500 10503 10505 10506 10506 10508
10424 10428 10429 10432 10435 10438 10441 10443 10445 10446 10447 10450 10450 10451 10450 10455 10457 10461 10465 10465 10465 10471 10472 10473 10475 10475 10477
10392 10396 10398 10401 10406 10409 10411 10413 10414 10415 10417 10422 10422 10422 10422 10424 10424 10426 10428 10432 10433 10437 10437 10441 10442 10443 10446
10356 10361 10367 10370 10374 10378 10382 10384 10385 10386 10385 10389 10392 10392 10393 10394 10394 10394 10393 10395 10396 10398 10403 10405 10406 10407 10410
10323 10328 10331 10336 10339 10343 10346 10349 10354 10355 10356 10357 10360 10360 10360 10363 10362 10363 10365 10362 10363 10364 10363 10364 10365 10367 10371
10286 10292 10296 10299 10304 10307 10310 10314 10318 10322 10324 10326 10327 10329 10330 10330 10333 10331 10331 10331 10331 10332 10332 10331 10332 10332 10332
10249 10253 10257 10261 10265 10268 10273 10276 10280 10282 10286 10289 10293 10293 10295 10299 10302 10302 10300 10301 10301 10301 10298 10298 10298 10298 10300
10209 10214 10217 10222 10225 10228 10232 10237 10241 10244 10246 10251 10255 10258 10260 10262 10265 10270 10267 10267 10267 10267 10265 10265 10266 10266 10266
10169 10173 10175 10177 10183 10187 10191 10195 10203 10205 10208 10211 10213 10216 10220 10225 10229 10232 10233 10233 10231 10230 10228 10231 10232 10230 10228
10128 10131 10134 10138 10141 10146 10153 10158 10162 10168 10169 10168 10172 10175 10180 10185 10189 10193 10193 10194 10191 10189 10187 10189 10194 10191 10190
10086 10092 10100 10105 10111 10113 10113 10118 10124 10127 10130 10133 10136 10134 10138 10147 10148 10147 10149 10152 10149 10149 10146 10146 10152 10155 10152